Tracking 18942 objects as of 18-Jan-2018
HD Live streaming from Space Station
objects crossing your sky now

COSMOS 1795

Track COSMOS 1795 now!
10-day predictions
COSMOS 1795 is classified as:


NORAD ID: 17139
Int'l Code: 1986-092B
Perigee: 1,473.6 km
Apogee: 1,488.3 km
Inclination: 74.0 °
Period: 115.4 minutes
Semi major axis: 7851 km
RCS: 0.6945 m2 (medium)
Launch date: November 21, 1986
Source: Commonwealth of Independent States (former USSR) (CIS)
Launch site: PLESETSK MISSILE AND SPACE COMPLEX (PKMTR)
aabbcc
Your satellite tracking list
Your tracking list is empty




NASA's NSSDC Master Catalog

Two Line Element Set (TLE):
1 17139U 86092B   18017.49540306 -.00000032 +00000-0 -11278-3 0  9993
2 17139 074.0136 145.1494 0009338 116.6515 310.7410 12.47769599419267
Source of the keplerian elements: AFSPC